CAPE
1880 1261 1178 1335 1358 2818 1147 2639 2282 1841 1612 1399 1181 1297 1187 1509 1103 788 1489 2178 1795 1948 1621 1404 1696 1730 1924 2062 1610 1179 847 1178 903 717 860 646 791 461 429 642 573 193 124
881 634 727 738 705 1083 1577 2089 3133 1591 1664 1749 1070 1400 1632 1568 1291 1555 855 1751 2326 2114 1976 1680 2189 2316 1730 1629 2091 1837 1462 1016 1329 1349 914 1184 1325 734 505 494 629 578 660
616 743 632 498 812 1190 2390 2310 2630 2377 2050 1794 1854 1856 1749 1633 919 1577 1462 1547 1283 1735 2080 2169 2149 2356 2271 1916 1596 1558 1658 1446 1263 1210 1239 1045 1122 1432 1085 857 933 841 916
535 1074 1667 1140 1267 1789 2013 2800 2960 1768 2490 2125 2751 1417 1637 1580 1999 1559 1418 1106 1847 879 1490 1916 1976 2225 2295 1768 1408 1084 1155 1169 518 705 917 1070 1083 1005 1124 1214 1152 1071 879
949 1764 1125 1281 1851 1265 2745 2176 1636 2220 1779 1854 1922 2311 1613 1590 1666 789 974 1233 1421 1228 1074 1316 1810 1969 1924 1336 1338 812 523 884 595 441 358 393 367 521 888 948 1043 1034 1022
699 2344 1913 2414 2175 2835 3019 1511 1858 2155 1341 1565 1116 627 1444 1380 929 924 653 527 861 1163 987 1315 2039 1143 1976 1747 1693 1773 1488 1029 847 612 620 670 413 394 536 348 442 835 898
1742 2307 2883 2510 2584 2643 1873 1630 1659 1968 989 1030 1287 825 1051 1105 1094 1010 991 313 565 1076 1041 983 1453 1601 1360 1552 1547 1615 1639 1724 1630 814 1047 868 849 708 492 375 370 411 434
1297 1308 1513 1943 1481 1807 1946 1578 1675 1790 1621 1631 1365 1881 965 765 529 654 758 791 428 462 430 1029 1375 2314 2091 1309 1230 1558 1654 1507 1484 1485 1318 1023 875 367 408 451 429 176 304
1066 1034 1153 1073 1432 1584 471 2383 1338 1461 2063 1978 1405 1003 905 1223 936 955 1460 1176 1517 1540 561 1091 980 167 2247 1100 1268 1357 1262 1179 931 976 1430 1409 922 388 357 385 396 202 261
936 626 705 947 917 918 1795 1209 2103 1606 1611 1372 1672 1829 950 1285 1330 1198 1926 2092 1407 1250 1431 1423 1529 1468 1111 1192 811 648 318 297 443 473 523 554 610 472 337 353 395 296 185
531 473 846 1458 1365 1675 1789 1671 1451 1567 1717 1438 1409 1243 1270 1078 903 1570 809 1009 629 448 637 829 1240 1281 935 516 554 108 88 113 94 92 60 74 83 91 90 102 132 177 197
362 635 791 790 877 1118 1549 1595 1531 1112 1329 1355 1814 826 711 1256 1622 1170 1485 695 737 155 450 109 181 191 342 365 177 57 66 57 51 34 20 21 35 83 117 127 137 179 165
206 768 826 908 919 1142 1153 1269 1277 1449 1312 1210 1180 1312 1067 1426 1446 1964 1840 500 523 434 16 14 32 89 82 101 63 18 24 32 17 6 0 0 0 0 2 12 18 24 28
950 452 626 592 782 942 1016 818 616 725 798 1200 1146 1313 1544 1901 1719 2348 1776 724 471 537 183 7 20 5 4 14 20 13 19 15 11 3 0 0 0 0 0 0 0 1 3
264 317 162 200 454 766 416 571 470 939 870 946 926 1123 1749 1995 1967 1571 1437 1266 640 395 112 24 4 3 4 7 16 20 19 6 1 0 0 0 0 0 0 0 0 0 0
444 449 119 513 320 485 729 985 541 411 319 418 519 791 1087 1491 1718 1769 1407 1470 1288 1084 262 1 0 2 22 34 37 15 0 0 0 0 0 0 0 0 0 0 0 0 0
222 222 133 177 123 139 120 156 253 99 117 245 228 382 504 895 1546 1351 1577 1609 1452 1532 50 1 2 9 8 2 35 7 0 0 0 0 4 7 1 1 0 0 0 0 0
197 123 163 147 80 60 67 40 20 179 12 16 17 71 178 82 366 443 406 844 1122 998 6 13 20 24 9 33 2 12 1 0 0 9 6 4 1 0 0 0 0 0 0
118 63 22 7 10 8 6 9 14 17 8 41 13 21 18 62 64 101 155 140 46 89 3 11 12 11 23 26 17 2 5 15 4 4 8 17 16 4 0 0 0 0 0
108 64 42 5 2 3 4 2 6 9 12 11 11 7 2 1 9 44 73 341 56 1 1 5 14 18 19 18 11 18 4 18 8 5 5 19 6 3 0 0 0 0 0
143 82 57 14 2 1 1 0 4 6 6 10 6 0 0 0 0 0 14 36 137 3 3 27 27 31 17 11 20 1 3 0 0 2 2 2 0 0 0 0 0 0 0
194 124 65 39 3 0 0 0 0 0 0 1 1 2 0 0 0 0 0 0 2 130 59 14 0 10 24 24 9 5 13 2 11 1 15 43 83 30 4 0 0 0 0
256 129 35 60 32 0 0 0 0 0 0 0 0 0 0 0 8 1 0 0 0 0 13 119 77 71 61 61 58 47 45 55 58 32 78 58 36 86 26 0 0 0 0
249 106 92 221 35 0 0 0 0 6 5 0 0 0 0 0 0 0 0 0 0 0 0 0 0 0 0 4 20 38 57 52 33 50 67 69 45 80 35 9 0 0 0
318 82 54 152 19 0 0 0 0 14 2 0 0 0 0 0 0 0 0 0 0 0 0 0 0 0 0 0 0 0 102 11 55 102 86 134 52 103 91 6 0 0 0
328 95 128 46 5 3 0 4 6 10 0 2 2 0 0 0 0 0 0 0 0 0 0 0 0 0 0 0 0 0 0 0 2 61 75 42 104 45 66 75 28 4 1
CIN
-8 -24 -27 -30 -25 -2 -61 -1 -4 -9 -1 -1 -1 -2 -10 -10 -3 -18 -88 -66 -64 -34 -15 -8 0 0 0 0 0 0 0 0 0 0 0 0 0 0 0 0 0 -1 -4
-64 -59 -42 -39 -48 -46 -38 -21 -3 -1 -3 -1 0 -1 -1 -3 -10 -8 -2 -58 -57 -45 -19 -9 0 0 -1 -2 0 0 0 0 0 -1 -10 0 0 0 0 0 0 0 0
-84 -52 -21 -17 -20 -22 -15 -12 -1 -2 -1 -2 -13 -7 -8 -3 0 -21 -15 -13 -53 -55 -39 -19 -8 -1 -1 0 -4 -4 -1 -2 -1 -1 -1 -2 -1 0 0 0 -3 0 0
-61 -17 -3 -1 0 0 0 0 -1 0 -1 -3 -2 -3 -7 -5 -10 -14 -4 0 -12 -25 -60 -43 -34 -15 -5 -4 -6 -1 -1 -4 -11 -2 -2 0 0 -1 -1 0 -2 -2 -1
-6 -2 0 -1 0 0 0 -1 -8 -3 -1 -4 -3 -5 -1 -8 -8 -5 -8 0 -3 -2 -27 -44 -43 -31 -21 -15 -13 -9 -6 -3 -14 -21 -25 -20 -19 -3 0 -1 -1 0 0
-18 0 0 -1 0 -1 0 -1 -7 -3 -1 -5 -10 -3 -7 -5 -17 -23 0 -1 -26 -7 -1 -2 -25 -16 -30 -29 -17 -7 -2 -3 -4 -10 -12 -15 -17 -7 -1 -19 -14 -2 -1
-1 0 0 0 0 0 0 0 0 0 0 -2 0 0 -7 -12 -4 -8 -4 0 0 -8 0 0 0 -2 -41 -43 -22 -14 -6 -2 -1 -10 -9 -12 -4 -1 -3 -3 -5 -4 -2
0 -1 0 0 0 0 0 0 0 0 0 0 0 0 0 0 -25 -2 -18 -4 0 -3 -2 0 -1 -1 -1 -8 -32 -18 -12 -7 -3 -3 -3 -4 -3 -32 -9 -5 0 -7 0
0 0 0 0 0 0 0 -4 0 0 0 -2 0 0 -1 0 -11 -8 -16 -34 -41 -4 0 -3 -30 -28 -5 -21 -12 -7 -14 -22 -16 -4 0 -1 -7 -32 -26 -10 -2 -9 0
0 0 0 0 0 0 -5 -1 -1 0 0 0 0 0 0 0 0 -2 -9 -4 -1 -1 -1 0 -18 -18 -29 -16 -8 -16 -61 -77 -36 -10 -9 -19 -29 -3 -4 -3 -3 0 -10
0 0 0 0 0 0 0 0 0 0 0 0 0 0 0 -1 0 0 -4 -1 0 -1 -3 -1 0 -4 -7 -2 -1 -65 -70 -52 -66 -44 -32 -91 -92 -71 -51 -22 -9 0 0
-14 0 -1 0 0 0 0 0 0 0 0 0 0 0 0 0 0 0 0 -7 -1 -3 -2 -21 -30 -22 -6 -4 -22 -37 -56 -45 -38 -23 -7 -5 -102 -68 -40 -20 -4 0 0
-3 0 0 0 0 0 0 0 0 0 0 0 0 0 0 0 0 0 -2 -15 -2 0 -36 -38 -23 -12 -2 -13 -28 -37 -25 -25 -18 -21 0 0 0 0 0 0 0 -5 -1
-1 -16 0 0 0 0 0 0 0 0 0 0 0 -1 0 0 0 0 -1 -14 0 0 0 -12 -6 -12 -6 -2 -2 -16 -9 -8 -9 -9 -1 0 0 0 0 0 0 0 0
0 -2 -21 -23 -2 0 -2 -1 0 0 0 0 0 0 0 0 0 -2 -3 -7 -2 0 -6 -11 -26 0 -15 -1 0 -3 -5 -8 -13 0 0 0 0 0 0 0 0 0 0
-6 -6 -18 -4 -3 -1 0 0 -3 -2 -11 0 0 0 0 0 0 0 -1 0 -1 -1 -1 -15 0 -9 -1 0 -2 -6 -3 -23 0 0 0 0 0 0 0 0 0 0 0
-1 -2 -6 -4 -13 -23 -40 -35 -14 -84 -57 -15 -22 0 -1 0 0 0 0 0 0 0 -17 -1 -3 -2 -1 -11 -5 0 0 0 0 0 -1 -1 -1 -1 0 0 0 0 0
-2 -3 -4 -3 -25 -58 -74 -111 -148 -36 0 -4 0 -91 -27 -77 0 0 0 0 0 0 -7 -1 -1 -1 -3 -1 -1 -2 -1 0 0 -6 -1 -3 0 -1 0 0 0 0 0
-19 -7 -13 0 0 0 0 0 0 0 0 -93 0 -26 0 -82 -72 -26 -12 -3 -24 -15 -5 -8 -7 -1 0 0 -1 -4 0 -1 -3 -4 -2 0 0 -8 0 0 0 0 0
-15 -8 -15 0 0 0 0 0 0 0 0 0 0 0 0 0 -3 -27 -20 0 -18 0 0 0 0 0 0 0 -1 0 -1 0 -3 0 -1 0 -2 -3 0 0 0 0 0
-3 -4 -5 -3 0 0 0 0 0 0 0 0 0 0 0 0 0 0 0 0 -4 -1 -3 -9 0 0 0 0 0 -3 0 0 0 0 -2 0 0 0 0 0 0 0 0
-1 0 0 0 0 0 0 0 0 0 0 0 0 0 0 0 0 0 0 0 -1 0 0 0 0 -5 0 0 0 0 0 0 0 0 -1 0 0 -1 0 0 0 0 0
-1 -1 -1 0 -7 0 0 0 0 0 0 0 0 0 0 0 -1 0 0 0 0 -1 -3 0 0 0 0 -1 -1 0 0 0 0 0 0 0 0 0 -9 0 0 0 0
-4 -13 -2 -2 -9 0 0 0 0 0 0 0 0 0 0 0 0 0 0 0 0 0 0 0 0 0 0 0 -1 -1 0 0 0 -1 -1 0 -3 -2 -23 -12 0 0 0
-3 -6 -9 -1 -17 0 0 0 0 0 0 0 0 0 0 0 0 0 0 0 0 0 0 0 0 0 0 0 0 0 -1 0 -1 0 -1 -4 -5 -5 -20 -8 -1 0 0
-5 -16 -2 -7 -2 0 0 -2 -2 -1 0 -1 -1 0 0 0 0 0 0 0 0 0 0 0 0 0 0 0 0 0 0 0 -1 -2 -2 -4 -1 -1 0 -14 -16 -43 -12
Wind_Speed
11 9 7 3 7 9 10 5 6 8 7 6 5 7 7 11 8 12 17 24 22 18 9 8 8 10 11 12 14 12 11 8 8 6 6 6 6 5 4 3 0 1 1
6 4 4 1 4 3 3 8 12 6 9 8 5 5 8 10 11 14 15 21 23 22 17 11 10 11 12 14 16 15 12 12 11 12 8 10 9 8 7 5 3 1 0
7 6 5 10 5 4 8 3 2 2 4 8 10 13 12 11 7 15 13 14 17 17 20 17 13 12 15 20 23 15 14 15 14 14 11 9 10 14 10 8 6 4 3
5 7 5 7 12 12 6 3 2 3 6 7 6 7 12 12 14 12 12 10 15 17 17 19 20 19 18 19 17 23 16 20 16 11 16 12 9 8 4 9 8 6 6
6 3 6 5 4 4 4 3 3 6 7 6 5 8 7 12 14 15 14 14 17 15 22 25 25 27 26 22 16 24 21 18 17 14 10 7 11 6 5 6 5 5 4
8 4 4 4 1 2 8 5 6 6 5 8 5 9 11 13 14 17 13 13 20 15 14 18 24 24 24 17 15 18 18 17 14 13 10 9 7 3 10 11 8 7 6
4 2 2 2 3 2 4 5 4 4 2 5 7 4 10 12 10 17 16 14 16 19 13 14 16 19 18 20 20 20 21 20 18 16 14 10 12 6 2 12 18 16 10
5 5 3 2 5 4 3 1 2 2 4 6 9 9 9 8 12 11 15 16 15 15 13 13 16 21 18 22 22 18 19 15 18 18 17 16 16 11 4 3 9 16 17
7 6 5 3 3 2 1 6 3 4 4 10 11 11 11 12 13 16 16 20 22 19 10 15 20 36 8 20 19 24 24 24 19 14 9 15 15 14 13 9 8 6 4
14 9 5 4 2 6 9 6 5 3 6 6 9 10 9 12 13 16 19 21 22 22 18 14 24 25 29 28 36 31 28 27 28 23 19 22 20 17 14 11 9 11 13
11 14 10 7 6 5 3 2 2 4 8 9 11 11 11 8 7 13 17 20 25 22 22 21 24 28 30 31 27 20 nan 27 nan nan nan nan nan nan nan 14 13 11 11
13 11 10 7 4 4 3 1 3 5 8 9 9 10 9 7 6 8 11 18 21 21 22 22 25 27 28 27 27 nan nan nan nan nan nan nan nan nan 24 23 22 20 19
9 10 7 6 4 5 4 5 6 3 6 5 6 6 9 7 4 5 8 16 17 21 nan nan nan nan nan 22 nan nan nan nan nan nan nan nan nan nan nan nan nan nan nan
4 5 7 8 9 10 10 8 7 5 6 6 4 3 6 5 7 7 9 17 18 21 19 nan nan nan nan nan nan nan nan nan nan nan nan nan nan nan nan nan nan nan nan
3 6 7 7 8 7 7 2 7 7 6 7 6 5 5 4 5 12 17 12 14 12 12 nan nan nan nan nan nan nan nan nan nan nan nan nan nan nan nan nan nan nan nan
6 5 3 5 8 11 10 11 11 12 12 11 8 6 3 2 4 6 9 14 14 13 14 nan nan nan nan nan nan nan nan nan nan nan nan nan nan nan nan nan nan nan nan
7 4 5 8 10 14 11 9 12 nan 11 9 6 6 4 5 6 6 9 8 10 13 nan nan nan nan nan nan nan nan nan nan nan nan nan nan nan nan nan nan nan nan nan
7 6 7 11 nan nan nan nan nan 19 nan nan nan nan 12 nan 10 10 14 16 14 14 nan nan nan nan nan nan nan nan nan nan nan nan nan nan nan nan nan nan nan nan nan
8 nan nan nan nan nan nan nan nan nan nan nan nan nan nan nan nan 17 16 16 nan nan nan nan nan nan nan nan nan nan nan nan nan nan nan nan nan nan nan nan nan nan nan
7 nan nan nan nan nan nan nan nan nan nan nan nan nan nan nan nan nan nan 17 nan nan nan nan nan nan nan nan nan nan nan nan nan nan nan nan nan nan nan nan nan nan nan
9 nan nan nan nan nan nan nan nan nan nan nan nan nan nan nan nan nan nan nan 24 nan nan nan nan nan nan nan nan nan nan nan nan nan nan nan nan nan nan nan nan nan nan
10 9 nan nan nan nan nan nan nan nan nan nan nan nan nan nan nan nan nan nan nan 25 nan nan nan nan nan nan nan nan nan nan nan nan nan nan nan nan nan nan nan nan nan
13 10 nan nan nan nan nan nan nan nan nan nan nan nan nan nan nan nan nan nan nan nan nan 29 nan nan nan nan nan nan nan nan nan nan nan nan nan nan nan nan nan nan nan
15 11 nan 12 nan nan nan nan nan nan nan nan nan nan nan nan nan nan nan nan nan nan nan nan nan nan nan nan nan nan nan nan nan nan nan nan nan nan nan nan nan nan nan
12 nan nan 13 nan nan nan nan nan nan nan nan nan nan nan nan nan nan nan nan nan nan nan nan nan nan nan nan nan nan 42 nan nan 47 nan 45 nan 44 nan nan nan nan nan
10 nan 16 nan nan nan nan nan nan nan nan nan nan nan nan nan nan nan nan nan nan nan nan nan nan nan nan nan nan nan nan nan nan nan nan nan 42 nan nan nan nan nan nan
Wind_Direction
247 288 256 312 181 174 204 201 245 234 271 245 274 299 274 218 235 250 265 293 292 296 308 328 323 319 314 310 310 316 297 299 312 326 326 323 321 308 281 262 213 132 134
259 274 232 204 97 72 204 201 207 224 262 273 276 233 243 242 256 238 246 278 299 297 301 303 299 306 317 300 301 298 295 291 292 302 299 303 287 296 269 231 206 130 10
232 209 161 115 141 160 271 241 157 190 225 261 265 269 252 276 272 280 263 253 283 303 306 311 308 305 308 304 304 292 284 281 270 264 287 301 310 299 272 226 198 185 201
169 148 149 105 134 193 247 258 249 309 283 232 240 234 268 278 275 271 273 282 272 288 307 313 310 309 309 304 297 296 271 282 276 243 250 262 301 309 234 208 218 211 222
156 173 101 119 135 127 251 256 311 270 296 281 279 288 280 281 287 277 281 285 287 272 281 311 314 307 303 302 294 297 298 283 289 304 304 274 267 224 179 202 225 234 246
123 131 128 178 255 283 274 285 271 282 309 336 330 282 279 263 266 273 275 279 289 284 281 290 298 302 314 306 298 291 304 316 318 320 331 344 307 285 201 197 237 244 258
154 3 307 32 343 261 280 273 312 342 246 255 240 282 276 298 276 271 272 273 280 286 298 288 290 303 286 301 288 295 299 306 331 340 344 315 3 279 206 247 221 232 244
159 198 211 355 326 284 319 345 204 256 289 300 301 289 281 288 280 282 271 278 295 278 292 304 273 266 242 262 272 291 306 307 326 341 347 348 25 46 352 177 233 243 245
196 201 208 226 271 344 126 324 322 353 307 301 322 295 277 279 265 282 282 263 255 261 271 251 259 264 278 262 276 273 281 288 284 295 324 5 4 25 18 13 14 348 277
185 191 211 235 222 150 188 193 234 294 296 313 294 304 313 277 257 266 257 264 261 261 250 244 256 249 251 251 249 253 261 269 274 273 272 263 275 283 284 278 296 299 281
187 195 214 232 206 204 168 101 351 326 313 318 311 300 296 305 300 263 262 266 266 262 255 242 247 253 259 266 268 253 nan 260 nan nan nan nan nan nan nan 270 279 270 294
219 196 210 213 196 159 163 262 285 315 307 323 325 326 324 303 295 298 269 271 267 264 257 248 253 260 253 265 266 nan nan nan nan nan nan nan nan nan 267 268 265 266 264
203 198 200 202 194 205 210 239 263 269 275 318 347 343 347 336 304 295 290 280 281 276 nan nan nan nan nan 253 nan nan nan nan nan nan nan nan nan nan nan nan nan nan nan
264 189 200 215 216 205 223 230 249 223 241 221 224 333 19 37 359 346 289 287 282 277 273 nan nan nan nan nan nan nan nan nan nan nan nan nan nan nan nan nan nan nan nan
297 262 215 218 221 224 251 272 243 214 194 187 149 127 85 47 11 345 11 333 309 316 286 nan nan nan nan nan nan nan nan nan nan nan nan nan nan nan nan nan nan nan nan
234 233 238 244 244 248 233 220 223 189 155 142 132 139 131 62 12 4 7 354 3 343 331 nan nan nan nan nan nan nan nan nan nan nan nan nan nan nan nan nan nan nan nan
219 277 285 280 270 270 266 247 245 nan 194 189 182 193 196 239 308 312 323 319 318 320 nan nan nan nan nan nan nan nan nan nan nan nan nan nan nan nan nan nan nan nan nan
240 239 254 261 nan nan nan nan nan 235 nan nan nan nan 252 nan 264 277 292 289 290 297 nan nan nan nan nan nan nan nan nan nan nan nan nan nan nan nan nan nan nan nan nan
253 nan nan nan nan nan nan nan nan nan nan nan nan nan nan nan nan 295 294 294 nan nan nan nan nan nan nan nan nan nan nan nan nan nan nan nan nan nan nan nan nan nan nan
254 nan nan nan nan nan nan nan nan nan nan nan nan nan nan nan nan nan nan 287 nan nan nan nan nan nan nan nan nan nan nan nan nan nan nan nan nan nan nan nan nan nan nan
268 nan nan nan nan nan nan nan nan nan nan nan nan nan nan nan nan nan nan nan 294 nan nan nan nan nan nan nan nan nan nan nan nan nan nan nan nan nan nan nan nan nan nan
286 281 nan nan nan nan nan nan nan nan nan nan nan nan nan nan nan nan nan nan nan 290 nan nan nan nan nan nan nan nan nan nan nan nan nan nan nan nan nan nan nan nan nan
281 277 nan nan nan nan nan nan nan nan nan nan nan nan nan nan nan nan nan nan nan nan nan 292 nan nan nan nan nan nan nan nan nan nan nan nan nan nan nan nan nan nan nan
279 268 nan 263 nan nan nan nan nan nan nan nan nan nan nan nan nan nan nan nan nan nan nan nan nan nan nan nan nan nan nan nan nan nan nan nan nan nan nan nan nan nan nan
281 nan nan 264 nan nan nan nan nan nan nan nan nan nan nan nan nan nan nan nan nan nan nan nan nan nan nan nan nan nan 302 nan nan 306 nan 302 nan 303 nan nan nan nan nan
291 nan 274 nan nan nan nan nan nan nan nan nan nan nan nan nan nan nan nan nan nan nan nan nan nan nan nan nan nan nan nan nan nan nan nan nan 307 nan nan nan nan nan nan